owner,sensor,date,latitude,longitude,air_temperature,qcFlag 
COMPS,ioos:station:USF.COMPS:ANC:1,2011-02-01T00:00:00Z,28.1930,-82.7890,17.5,1111122 
COMPS,ioos:station:USF.COMPS:ANC:1,2011-02-01T00:06:00Z,28.1930,-82.7890,17.39,1111122 
COMPS,ioos:station:USF.COMPS:ANC:1,2011-02-01T00:12:00Z,28.1930,-82.7890,17.37,1111122 
COMPS,ioos:station:USF.COMPS:ANC:1,2011-02-01T00:18:00Z,28.1930,-82.7890,17.32,1111122 
COMPS,ioos:station:USF.COMPS:ANC:1,2011-02-01T00:24:00Z,28.1930,-82.7890,17.49,1111122 
COMPS,ioos:station:USF.COMPS:ANC:1,2011-02-01T00:30:00Z,28.1930,-82.7890,17.37,1111122 
COMPS,ioos:station:USF.COMPS:ANC:1,2011-02-01T00:36:00Z,28.1930,-82.7890,17.22,1111122 
COMPS,ioos:station:USF.COMPS:ANC:1,2011-02-01T00:42:00Z,28.1930,-82.7890,16.95,1111122 
COMPS,ioos:station:USF.COMPS:ANC:1,2011-02-01T00:48:00Z,28.1930,-82.7890,16.7,1111122 
COMPS,ioos:station:USF.COMPS:ANC:1,2011-02-01T00:54:00Z,28.1930,-82.7890,16.52,1111122 
COMPS,ioos:station:USF.COMPS:ANC:1,2011-02-01T01:00:00Z,28.1930,-82.7890,16.5,1111122 
COMPS,ioos:station:USF.COMPS:ANC:1,2011-02-01T02:00:00Z,28.1930,-82.7890,17.1,1111122 
COMPS,ioos:station:USF.COMPS:ANC:1,2011-02-01T03:00:00Z,28.1930,-82.7890,15.7,1111122 
COMPS,ioos:station:USF.COMPS:ANC:1,2011-02-01T04:00:00Z,28.1930,-82.7890,15.1,1111122 
COMPS,ioos:station:USF.COMPS:ANC:1,2011-02-01T04:06:00Z,28.1930,-82.7890,15.04,1111122 
COMPS,ioos:station:USF.COMPS:ANC:1,2011-02-01T04:12:00Z,28.1930,-82.7890,14.87,1111122 
COMPS,ioos:station:USF.COMPS:ANC:1,2011-02-01T04:18:00Z,28.1930,-82.7890,14.97,1111122 
COMPS,ioos:station:USF.COMPS:ANC:1,2011-02-01T04:24:00Z,28.1930,-82.7890,15.12,1111122 
COMPS,ioos:station:USF.COMPS:ANC:1,2011-02-01T04:30:00Z,28.1930,-82.7890,14.98,1111122 
COMPS,ioos:station:USF.COMPS:ANC:1,2011-02-01T04:36:00Z,28.1930,-82.7890,15.1,1111122 
COMPS,ioos:station:USF.COMPS:ANC:1,2011-02-01T04:42:00Z,28.1930,-82.7890,15.13,1111122 
COMPS,ioos:station:USF.COMPS:ANC:1,2011-02-01T04:48:00Z,28.1930,-82.7890,15.0,1111122 
COMPS,ioos:station:USF.COMPS:ANC:1,2011-02-01T04:54:00Z,28.1930,-82.7890,14.99,1111122 
COMPS,ioos:station:USF.COMPS:ANC:1,2011-02-01T05:00:00Z,28.1930,-82.7890,15.0,1111122 
COMPS,ioos:station:USF.COMPS:ANC:1,2011-02-01T06:00:00Z,28.1930,-82.7890,14.4,1111122 
COMPS,ioos:station:USF.COMPS:ANC:1,2011-02-01T07:00:00Z,28.1930,-82.7890,13.9,1111122 
COMPS,ioos:station:USF.COMPS:ANC:1,2011-02-01T08:00:00Z,28.1930,-82.7890,14.5,1111122 
COMPS,ioos:station:USF.COMPS:ANC:1,2011-02-01T09:00:00Z,28.1930,-82.7890,14.2,1111122 
COMPS,ioos:station:USF.COMPS:ANC:1,2011-02-01T10:00:00Z,28.1930,-82.7890,13.8,1111122 
COMPS,ioos:station:USF.COMPS:ANC:1,2011-02-01T10:06:00Z,28.1930,-82.7890,13.79,1111122 
COMPS,ioos:station:USF.COMPS:ANC:1,2011-02-01T10:12:00Z,28.1930,-82.7890,13.87,1111122 
COMPS,ioos:station:USF.COMPS:ANC:1,2011-02-01T10:18:00Z,28.1930,-82.7890,13.9,1111122 
COMPS,ioos:station:USF.COMPS:ANC:1,2011-02-01T10:24:00Z,28.1930,-82.7890,14.07,1111122 
COMPS,ioos:station:USF.COMPS:ANC:1,2011-02-01T10:30:00Z,28.1930,-82.7890,13.91,1111122 
COMPS,ioos:station:USF.COMPS:ANC:1,2011-02-01T10:36:00Z,28.1930,-82.7890,13.92,1111122 
COMPS,ioos:station:USF.COMPS:ANC:1,2011-02-01T10:42:00Z,28.1930,-82.7890,13.91,1111122 
COMPS,ioos:station:USF.COMPS:ANC:1,2011-02-01T10:48:00Z,28.1930,-82.7890,13.91,1111122 
COMPS,ioos:station:USF.COMPS:ANC:1,2011-02-01T10:54:00Z,28.1930,-82.7890,13.9,1111122 
COMPS,ioos:station:USF.COMPS:ANC:1,2011-02-01T11:00:00Z,28.1930,-82.7890,13.9,1111122 
COMPS,ioos:station:USF.COMPS:ANC:1,2011-02-01T12:00:00Z,28.1930,-82.7890,13.9,1111122 
COMPS,ioos:station:USF.COMPS:ANC:1,2011-02-01T13:00:00Z,28.1930,-82.7890,14.2,1111122 
COMPS,ioos:station:USF.COMPS:ANC:1,2011-02-01T14:00:00Z,28.1930,-82.7890,16.6,1111122 
COMPS,ioos:station:USF.COMPS:ANC:1,2011-02-01T14:06:00Z,28.1930,-82.7890,16.85,1111122 
COMPS,ioos:station:USF.COMPS:ANC:1,2011-02-01T14:12:00Z,28.1930,-82.7890,16.98,1111122 
COMPS,ioos:station:USF.COMPS:ANC:1,2011-02-01T14:18:00Z,28.1930,-82.7890,17.25,1111122 
COMPS,ioos:station:USF.COMPS:ANC:1,2011-02-01T14:24:00Z,28.1930,-82.7890,17.71,1111122 
COMPS,ioos:station:USF.COMPS:ANC:1,2011-02-01T14:30:00Z,28.1930,-82.7890,17.89,1111122 
COMPS,ioos:station:USF.COMPS:ANC:1,2011-02-01T14:36:00Z,28.1930,-82.7890,18.24,1111122 
COMPS,ioos:station:USF.COMPS:ANC:1,2011-02-01T14:42:00Z,28.1930,-82.7890,18.5,1111122 
COMPS,ioos:station:USF.COMPS:ANC:1,2011-02-01T14:48:00Z,28.1930,-82.7890,18.68,1111122 
COMPS,ioos:station:USF.COMPS:ANC:1,2011-02-01T14:54:00Z,28.1930,-82.7890,18.9,1111122 
COMPS,ioos:station:USF.COMPS:ANC:1,2011-02-01T15:00:00Z,28.1930,-82.7890,18.9,1111122 
COMPS,ioos:station:USF.COMPS:ANC:1,2011-02-01T16:00:00Z,28.1930,-82.7890,21.0,1111122 
COMPS,ioos:station:USF.COMPS:ANC:1,2011-02-01T16:06:00Z,28.1930,-82.7890,21.35,1111122 
COMPS,ioos:station:USF.COMPS:ANC:1,2011-02-01T16:12:00Z,28.1930,-82.7890,21.43,1111122 
COMPS,ioos:station:USF.COMPS:ANC:1,2011-02-01T16:18:00Z,28.1930,-82.7890,21.55,1111122 
COMPS,ioos:station:USF.COMPS:ANC:1,2011-02-01T16:24:00Z,28.1930,-82.7890,21.99,1111122 
COMPS,ioos:station:USF.COMPS:ANC:1,2011-02-01T16:30:00Z,28.1930,-82.7890,21.92,1111122 
COMPS,ioos:station:USF.COMPS:ANC:1,2011-02-01T16:36:00Z,28.1930,-82.7890,21.91,1111122 
COMPS,ioos:station:USF.COMPS:ANC:1,2011-02-01T16:42:00Z,28.1930,-82.7890,21.92,1111122 
COMPS,ioos:station:USF.COMPS:ANC:1,2011-02-01T16:48:00Z,28.1930,-82.7890,22.1,1111122 
COMPS,ioos:station:USF.COMPS:ANC:1,2011-02-01T16:54:00Z,28.1930,-82.7890,21.84,1111122 
COMPS,ioos:station:USF.COMPS:ANC:1,2011-02-01T17:00:00Z,28.1930,-82.7890,21.8,1111122 
COMPS,ioos:station:USF.COMPS:ANC:1,2011-02-01T17:06:00Z,28.1930,-82.7890,22.21,1111122 
COMPS,ioos:station:USF.COMPS:ANC:1,2011-02-01T17:12:00Z,28.1930,-82.7890,22.32,1111122 
COMPS,ioos:station:USF.COMPS:ANC:1,2011-02-01T17:18:00Z,28.1930,-82.7890,22.5,1111122 
COMPS,ioos:station:USF.COMPS:ANC:1,2011-02-01T17:24:00Z,28.1930,-82.7890,23.04,1111122 
COMPS,ioos:station:USF.COMPS:ANC:1,2011-02-01T17:30:00Z,28.1930,-82.7890,22.91,1111122 
COMPS,ioos:station:USF.COMPS:ANC:1,2011-02-01T17:36:00Z,28.1930,-82.7890,22.9,1111122 
COMPS,ioos:station:USF.COMPS:ANC:1,2011-02-01T17:42:00Z,28.1930,-82.7890,23.17,1111122 
COMPS,ioos:station:USF.COMPS:ANC:1,2011-02-01T17:48:00Z,28.1930,-82.7890,23.25,1111122 
COMPS,ioos:station:USF.COMPS:ANC:1,2011-02-01T17:54:00Z,28.1930,-82.7890,23.33,1111122 
COMPS,ioos:station:USF.COMPS:ANC:1,2011-02-01T18:00:00Z,28.1930,-82.7890,23.3,1111122 
COMPS,ioos:station:USF.COMPS:ANC:1,2011-02-01T19:00:00Z,28.1930,-82.7890,24.0,1111122 
COMPS,ioos:station:USF.COMPS:ANC:1,2011-02-01T20:00:00Z,28.1930,-82.7890,23.4,1111122 
COMPS,ioos:station:USF.COMPS:ANC:1,2011-02-01T21:00:00Z,28.1930,-82.7890,23.0,1111122 
COMPS,ioos:station:USF.COMPS:ANC:1,2011-02-01T21:06:00Z,28.1930,-82.7890,23.48,1111122 
COMPS,ioos:station:USF.COMPS:ANC:1,2011-02-01T21:12:00Z,28.1930,-82.7890,23.8,1111122 
COMPS,ioos:station:USF.COMPS:ANC:1,2011-02-01T21:18:00Z,28.1930,-82.7890,24.0,1111122 
COMPS,ioos:station:USF.COMPS:ANC:1,2011-02-01T21:24:00Z,28.1930,-82.7890,24.39,1111122 
COMPS,ioos:station:USF.COMPS:ANC:1,2011-02-01T21:30:00Z,28.1930,-82.7890,23.72,1111122 
COMPS,ioos:station:USF.COMPS:ANC:1,2011-02-01T21:36:00Z,28.1930,-82.7890,23.33,1111122 
COMPS,ioos:station:USF.COMPS:ANC:1,2011-02-01T21:42:00Z,28.1930,-82.7890,23.28,1111122 
COMPS,ioos:station:USF.COMPS:ANC:1,2011-02-01T21:48:00Z,28.1930,-82.7890,23.3,1111122 
COMPS,ioos:station:USF.COMPS:ANC:1,2011-02-01T21:54:00Z,28.1930,-82.7890,23.24,1111122 
COMPS,ioos:station:USF.COMPS:ANC:1,2011-02-01T22:00:00Z,28.1930,-82.7890,23.2,1111122 
COMPS,ioos:station:USF.COMPS:ANC:1,2011-02-01T23:00:00Z,28.1930,-82.7890,22.9,1111122 
COMPS,ioos:station:USF.COMPS:ANC:1,2011-02-02T00:00:00Z,28.1930,-82.7890,22.5,1111122 
COMPS,ioos:station:USF.COMPS:ANC:1,2011-02-02T00:06:00Z,28.1930,-82.7890,22.99,1111122 
COMPS,ioos:station:USF.COMPS:ANC:1,2011-02-02T00:12:00Z,28.1930,-82.7890,23.01,1111122 
COMPS,ioos:station:USF.COMPS:ANC:1,2011-02-02T00:18:00Z,28.1930,-82.7890,22.94,1111122 
COMPS,ioos:station:USF.COMPS:ANC:1,2011-02-02T00:24:00Z,28.1930,-82.7890,23.07,1111122 
COMPS,ioos:station:USF.COMPS:ANC:1,2011-02-02T00:30:00Z,28.1930,-82.7890,22.82,1111122 
COMPS,ioos:station:USF.COMPS:ANC:1,2011-02-02T00:36:00Z,28.1930,-82.7890,22.81,1111122 
COMPS,ioos:station:USF.COMPS:ANC:1,2011-02-02T00:42:00Z,28.1930,-82.7890,22.74,1111122 
COMPS,ioos:station:USF.COMPS:ANC:1,2011-02-02T00:48:00Z,28.1930,-82.7890,22.78,1111122 
COMPS,ioos:station:USF.COMPS:ANC:1,2011-02-02T00:54:00Z,28.1930,-82.7890,22.78,1111122 
COMPS,ioos:station:USF.COMPS:ANC:1,2011-02-02T01:00:00Z,28.1930,-82.7890,22.8,1111122 
COMPS,ioos:station:USF.COMPS:ANC:1,2011-02-02T02:00:00Z,28.1930,-82.7890,21.5,1111122 
COMPS,ioos:station:USF.COMPS:ANC:1,2011-02-02T03:00:00Z,28.1930,-82.7890,21.6,1111122 
COMPS,ioos:station:USF.COMPS:ANC:1,2011-02-02T03:06:00Z,28.1930,-82.7890,21.64,1111122 
COMPS,ioos:station:USF.COMPS:ANC:1,2011-02-02T03:12:00Z,28.1930,-82.7890,21.85,1111122 
COMPS,ioos:station:USF.COMPS:ANC:1,2011-02-02T03:18:00Z,28.1930,-82.7890,21.95,1111122 
COMPS,ioos:station:USF.COMPS:ANC:1,2011-02-02T03:24:00Z,28.1930,-82.7890,22.19,1111122 
COMPS,ioos:station:USF.COMPS:ANC:1,2011-02-02T03:30:00Z,28.1930,-82.7890,22.13,1111122 
COMPS,ioos:station:USF.COMPS:ANC:1,2011-02-02T03:36:00Z,28.1930,-82.7890,22.27,1111122 
COMPS,ioos:station:USF.COMPS:ANC:1,2011-02-02T03:42:00Z,28.1930,-82.7890,22.29,1111122 
COMPS,ioos:station:USF.COMPS:ANC:1,2011-02-02T03:48:00Z,28.1930,-82.7890,22.41,1111122 
COMPS,ioos:station:USF.COMPS:ANC:1,2011-02-02T03:54:00Z,28.1930,-82.7890,22.4,1111122 
COMPS,ioos:station:USF.COMPS:ANC:1,2011-02-02T04:00:00Z,28.1930,-82.7890,22.4,1111122 
COMPS,ioos:station:USF.COMPS:ANC:1,2011-02-02T04:06:00Z,28.1930,-82.7890,22.21,1111122 
COMPS,ioos:station:USF.COMPS:ANC:1,2011-02-02T04:12:00Z,28.1930,-82.7890,22.14,1111122 
COMPS,ioos:station:USF.COMPS:ANC:1,2011-02-02T04:18:00Z,28.1930,-82.7890,21.97,1111122 
COMPS,ioos:station:USF.COMPS:ANC:1,2011-02-02T04:24:00Z,28.1930,-82.7890,22.02,1111122 
COMPS,ioos:station:USF.COMPS:ANC:1,2011-02-02T04:30:00Z,28.1930,-82.7890,21.71,1111122 
COMPS,ioos:station:USF.COMPS:ANC:1,2011-02-02T04:36:00Z,28.1930,-82.7890,21.86,1111122 
COMPS,ioos:station:USF.COMPS:ANC:1,2011-02-02T04:42:00Z,28.1930,-82.7890,21.88,1111122 
COMPS,ioos:station:USF.COMPS:ANC:1,2011-02-02T04:48:00Z,28.1930,-82.7890,21.88,1111122 
COMPS,ioos:station:USF.COMPS:ANC:1,2011-02-02T04:54:00Z,28.1930,-82.7890,21.9,1111122 
COMPS,ioos:station:USF.COMPS:ANC:1,2011-02-02T05:00:00Z,28.1930,-82.7890,21.9,1111122 
COMPS,ioos:station:USF.COMPS:ANC:1,2011-02-02T06:00:00Z,28.1930,-82.7890,21.6,1111122 
COMPS,ioos:station:USF.COMPS:ANC:1,2011-02-02T07:00:00Z,28.1930,-82.7890,21.3,1111122 
COMPS,ioos:station:USF.COMPS:ANC:1,2011-02-02T08:00:00Z,28.1930,-82.7890,21.5,1111122 
COMPS,ioos:station:USF.COMPS:ANC:1,2011-02-02T08:06:00Z,28.1930,-82.7890,21.36,1111122 
COMPS,ioos:station:USF.COMPS:ANC:1,2011-02-02T08:12:00Z,28.1930,-82.7890,21.34,1111122 
COMPS,ioos:station:USF.COMPS:ANC:1,2011-02-02T08:18:00Z,28.1930,-82.7890,21.34,1111122 
COMPS,ioos:station:USF.COMPS:ANC:1,2011-02-02T08:24:00Z,28.1930,-82.7890,21.58,1111122 
COMPS,ioos:station:USF.COMPS:ANC:1,2011-02-02T08:30:00Z,28.1930,-82.7890,21.34,1111122 
COMPS,ioos:station:USF.COMPS:ANC:1,2011-02-02T08:36:00Z,28.1930,-82.7890,21.36,1111122 
COMPS,ioos:station:USF.COMPS:ANC:1,2011-02-02T08:42:00Z,28.1930,-82.7890,21.33,1111122 
COMPS,ioos:station:USF.COMPS:ANC:1,2011-02-02T08:48:00Z,28.1930,-82.7890,21.28,1111122 
COMPS,ioos:station:USF.COMPS:ANC:1,2011-02-02T08:54:00Z,28.1930,-82.7890,21.2,1111122 
COMPS,ioos:station:USF.COMPS:ANC:1,2011-02-02T09:00:00Z,28.1930,-82.7890,21.2,1111122 
COMPS,ioos:station:USF.COMPS:ANC:1,2011-02-02T10:00:00Z,28.1930,-82.7890,21.4,1111122 
COMPS,ioos:station:USF.COMPS:ANC:1,2011-02-02T11:00:00Z,28.1930,-82.7890,21.6,1111122 
COMPS,ioos:station:USF.COMPS:ANC:1,2011-02-02T11:06:00Z,28.1930,-82.7890,21.61,1111122 
COMPS,ioos:station:USF.COMPS:ANC:1,2011-02-02T11:12:00Z,28.1930,-82.7890,21.68,1111122 
COMPS,ioos:station:USF.COMPS:ANC:1,2011-02-02T11:18:00Z,28.1930,-82.7890,21.73,1111122 
COMPS,ioos:station:USF.COMPS:ANC:1,2011-02-02T11:24:00Z,28.1930,-82.7890,21.91,1111122 
COMPS,ioos:station:USF.COMPS:ANC:1,2011-02-02T11:30:00Z,28.1930,-82.7890,21.65,1111122 
COMPS,ioos:station:USF.COMPS:ANC:1,2011-02-02T11:36:00Z,28.1930,-82.7890,21.63,1111122 
COMPS,ioos:station:USF.COMPS:ANC:1,2011-02-02T11:42:00Z,28.1930,-82.7890,21.69,1111122 
COMPS,ioos:station:USF.COMPS:ANC:1,2011-02-02T11:48:00Z,28.1930,-82.7890,21.67,1111122 
COMPS,ioos:station:USF.COMPS:ANC:1,2011-02-02T11:54:00Z,28.1930,-82.7890,21.65,1111122 
COMPS,ioos:station:USF.COMPS:ANC:1,2011-02-02T12:00:00Z,28.1930,-82.7890,21.7,1111122 
COMPS,ioos:station:USF.COMPS:ANC:1,2011-02-02T13:00:00Z,28.1930,-82.7890,21.7,1111122 
COMPS,ioos:station:USF.COMPS:ANC:1,2011-02-02T14:00:00Z,28.1930,-82.7890,21.7,1111122 
COMPS,ioos:station:USF.COMPS:ANC:1,2011-02-02T15:00:00Z,28.1930,-82.7890,21.8,1111122 
COMPS,ioos:station:USF.COMPS:ANC:1,2011-02-02T15:06:00Z,28.1930,-82.7890,21.95,1111122 
COMPS,ioos:station:USF.COMPS:ANC:1,2011-02-02T15:12:00Z,28.1930,-82.7890,21.83,1111122 
COMPS,ioos:station:USF.COMPS:ANC:1,2011-02-02T15:18:00Z,28.1930,-82.7890,21.61,1111122 
COMPS,ioos:station:USF.COMPS:ANC:1,2011-02-02T15:24:00Z,28.1930,-82.7890,21.68,1111122 
COMPS,ioos:station:USF.COMPS:ANC:1,2011-02-02T15:30:00Z,28.1930,-82.7890,21.31,1111122 
COMPS,ioos:station:USF.COMPS:ANC:1,2011-02-02T15:36:00Z,28.1930,-82.7890,21.2,1111122 
COMPS,ioos:station:USF.COMPS:ANC:1,2011-02-02T15:42:00Z,28.1930,-82.7890,21.08,1111122 
COMPS,ioos:station:USF.COMPS:ANC:1,2011-02-02T15:48:00Z,28.1930,-82.7890,18.71,1111122 
COMPS,ioos:station:USF.COMPS:ANC:1,2011-02-02T15:54:00Z,28.1930,-82.7890,19.2,1111122 
COMPS,ioos:station:USF.COMPS:ANC:1,2011-02-02T16:00:00Z,28.1930,-82.7890,19.2,1111122 
COMPS,ioos:station:USF.COMPS:ANC:1,2011-02-02T17:00:00Z,28.1930,-82.7890,17.5,1111122 
COMPS,ioos:station:USF.COMPS:ANC:1,2011-02-02T17:06:00Z,28.1930,-82.7890,17.8,1111122 
COMPS,ioos:station:USF.COMPS:ANC:1,2011-02-02T17:12:00Z,28.1930,-82.7890,17.83,1111122 
COMPS,ioos:station:USF.COMPS:ANC:1,2011-02-02T17:18:00Z,28.1930,-82.7890,17.87,1111122 
COMPS,ioos:station:USF.COMPS:ANC:1,2011-02-02T17:24:00Z,28.1930,-82.7890,18.2,1111122 
COMPS,ioos:station:USF.COMPS:ANC:1,2011-02-02T17:30:00Z,28.1930,-82.7890,17.83,1111122 
COMPS,ioos:station:USF.COMPS:ANC:1,2011-02-02T17:36:00Z,28.1930,-82.7890,17.83,1111122 
COMPS,ioos:station:USF.COMPS:ANC:1,2011-02-02T17:42:00Z,28.1930,-82.7890,17.83,1111122 
COMPS,ioos:station:USF.COMPS:ANC:1,2011-02-02T17:48:00Z,28.1930,-82.7890,17.95,1111122 
COMPS,ioos:station:USF.COMPS:ANC:1,2011-02-02T17:54:00Z,28.1930,-82.7890,18.06,1111122 
COMPS,ioos:station:USF.COMPS:ANC:1,2011-02-02T18:00:00Z,28.1930,-82.7890,18.1,1111122 
COMPS,ioos:station:USF.COMPS:ANC:1,2011-02-02T19:00:00Z,28.1930,-82.7890,18.4,1111122 
COMPS,ioos:station:USF.COMPS:ANC:1,2011-02-02T20:00:00Z,28.1930,-82.7890,19.4,1111122 
COMPS,ioos:station:USF.COMPS:ANC:1,2011-02-02T21:00:00Z,28.1930,-82.7890,20.3,1111122 
COMPS,ioos:station:USF.COMPS:ANC:1,2011-02-02T22:00:00Z,28.1930,-82.7890,20.5,1111122 
COMPS,ioos:station:USF.COMPS:ANC:1,2011-02-02T22:06:00Z,28.1930,-82.7890,20.53,1111122 
COMPS,ioos:station:USF.COMPS:ANC:1,2011-02-02T22:12:00Z,28.1930,-82.7890,20.53,1111122 
COMPS,ioos:station:USF.COMPS:ANC:1,2011-02-02T22:18:00Z,28.1930,-82.7890,20.53,1111122 
COMPS,ioos:station:USF.COMPS:ANC:1,2011-02-02T22:24:00Z,28.1930,-82.7890,20.79,1111122 
COMPS,ioos:station:USF.COMPS:ANC:1,2011-02-02T22:30:00Z,28.1930,-82.7890,20.4,1111122 
COMPS,ioos:station:USF.COMPS:ANC:1,2011-02-02T22:36:00Z,28.1930,-82.7890,20.38,1111122 
COMPS,ioos:station:USF.COMPS:ANC:1,2011-02-02T22:42:00Z,28.1930,-82.7890,20.2,1111122 
COMPS,ioos:station:USF.COMPS:ANC:1,2011-02-02T22:48:00Z,28.1930,-82.7890,19.32,1111122 
COMPS,ioos:station:USF.COMPS:ANC:1,2011-02-02T22:54:00Z,28.1930,-82.7890,18.81,1111122 
COMPS,ioos:station:USF.COMPS:ANC:1,2011-02-02T23:00:00Z,28.1930,-82.7890,18.8,1111122 
COMPS,ioos:station:USF.COMPS:ANC:1,2011-02-03T00:00:00Z,28.1930,-82.7890,17.5,1111122 
COMPS,ioos:station:USF.COMPS:ANC:1,2011-02-03T01:00:00Z,28.1930,-82.7890,17.9,1111122 
COMPS,ioos:station:USF.COMPS:ANC:1,2011-02-03T02:00:00Z,28.1930,-82.7890,17.7,1111122 
COMPS,ioos:station:USF.COMPS:ANC:1,2011-02-03T03:00:00Z,28.1930,-82.7890,17.5,1111122 
COMPS,ioos:station:USF.COMPS:ANC:1,2011-02-03T04:00:00Z,28.1930,-82.7890,16.9,1111122 
COMPS,ioos:station:USF.COMPS:ANC:1,2011-02-03T04:06:00Z,28.1930,-82.7890,17.0,1111122 
COMPS,ioos:station:USF.COMPS:ANC:1,2011-02-03T04:12:00Z,28.1930,-82.7890,17.16,1111122 
COMPS,ioos:station:USF.COMPS:ANC:1,2011-02-03T04:18:00Z,28.1930,-82.7890,17.15,1111122 
COMPS,ioos:station:USF.COMPS:ANC:1,2011-02-03T04:24:00Z,28.1930,-82.7890,17.34,1111122 
COMPS,ioos:station:USF.COMPS:ANC:1,2011-02-03T04:30:00Z,28.1930,-82.7890,17.18,1111122 
COMPS,ioos:station:USF.COMPS:ANC:1,2011-02-03T04:36:00Z,28.1930,-82.7890,17.3,1111122 
COMPS,ioos:station:USF.COMPS:ANC:1,2011-02-03T04:42:00Z,28.1930,-82.7890,17.45,1111122 
COMPS,ioos:station:USF.COMPS:ANC:1,2011-02-03T04:48:00Z,28.1930,-82.7890,17.58,1111122 
COMPS,ioos:station:USF.COMPS:ANC:1,2011-02-03T04:54:00Z,28.1930,-82.7890,17.58,1111122 
COMPS,ioos:station:USF.COMPS:ANC:1,2011-02-03T05:00:00Z,28.1930,-82.7890,17.6,1111122 
COMPS,ioos:station:USF.COMPS:ANC:1,2011-02-03T06:00:00Z,28.1930,-82.7890,17.9,1111122 
COMPS,ioos:station:USF.COMPS:ANC:1,2011-02-03T07:00:00Z,28.1930,-82.7890,16.2,1111122 
COMPS,ioos:station:USF.COMPS:ANC:1,2011-02-03T08:00:00Z,28.1930,-82.7890,15.8,1111122 
COMPS,ioos:station:USF.COMPS:ANC:1,2011-02-03T09:00:00Z,28.1930,-82.7890,16.7,1111122 
COMPS,ioos:station:USF.COMPS:ANC:1,2011-02-03T09:06:00Z,28.1930,-82.7890,16.67,1111122 
COMPS,ioos:station:USF.COMPS:ANC:1,2011-02-03T09:12:00Z,28.1930,-82.7890,16.78,1111122 
COMPS,ioos:station:USF.COMPS:ANC:1,2011-02-03T09:18:00Z,28.1930,-82.7890,16.91,1111122 
COMPS,ioos:station:USF.COMPS:ANC:1,2011-02-03T09:24:00Z,28.1930,-82.7890,17.12,1111122 
COMPS,ioos:station:USF.COMPS:ANC:1,2011-02-03T09:30:00Z,28.1930,-82.7890,17.04,1111122 
COMPS,ioos:station:USF.COMPS:ANC:1,2011-02-03T09:36:00Z,28.1930,-82.7890,17.17,1111122 
COMPS,ioos:station:USF.COMPS:ANC:1,2011-02-03T09:42:00Z,28.1930,-82.7890,17.4,1111122 
COMPS,ioos:station:USF.COMPS:ANC:1,2011-02-03T09:48:00Z,28.1930,-82.7890,17.52,1111122 
COMPS,ioos:station:USF.COMPS:ANC:1,2011-02-03T09:54:00Z,28.1930,-82.7890,17.59,1111122 
COMPS,ioos:station:USF.COMPS:ANC:1,2011-02-03T10:00:00Z,28.1930,-82.7890,17.6,1111122 
COMPS,ioos:station:USF.COMPS:ANC:1,2011-02-03T11:00:00Z,28.1930,-82.7890,17.8,1111122 
COMPS,ioos:station:USF.COMPS:ANC:1,2011-02-03T12:00:00Z,28.1930,-82.7890,17.8,1111122 
COMPS,ioos:station:USF.COMPS:ANC:1,2011-02-03T13:00:00Z,28.1930,-82.7890,18.4,1111122 
COMPS,ioos:station:USF.COMPS:ANC:1,2011-02-03T14:00:00Z,28.1930,-82.7890,19.2,1111122 
COMPS,ioos:station:USF.COMPS:ANC:1,2011-02-03T15:00:00Z,28.1930,-82.7890,19.2,1111122 
COMPS,ioos:station:USF.COMPS:ANC:1,2011-02-03T16:00:00Z,28.1930,-82.7890,19.1,1111122 
COMPS,ioos:station:USF.COMPS:ANC:1,2011-02-03T17:00:00Z,28.1930,-82.7890,19.5,1111122 
COMPS,ioos:station:USF.COMPS:ANC:1,2011-02-03T17:06:00Z,28.1930,-82.7890,19.31,1111122 
COMPS,ioos:station:USF.COMPS:ANC:1,2011-02-03T17:12:00Z,28.1930,-82.7890,19.41,1111122 
COMPS,ioos:station:USF.COMPS:ANC:1,2011-02-03T17:18:00Z,28.1930,-82.7890,19.53,1111122 
COMPS,ioos:station:USF.COMPS:ANC:1,2011-02-03T17:24:00Z,28.1930,-82.7890,19.85,1111122 
COMPS,ioos:station:USF.COMPS:ANC:1,2011-02-03T17:30:00Z,28.1930,-82.7890,19.12,1111122 
COMPS,ioos:station:USF.COMPS:ANC:1,2011-02-03T17:36:00Z,28.1930,-82.7890,18.82,1111122 
COMPS,ioos:station:USF.COMPS:ANC:1,2011-02-03T17:42:00Z,28.1930,-82.7890,18.77,1111122 
COMPS,ioos:station:USF.COMPS:ANC:1,2011-02-03T17:48:00Z,28.1930,-82.7890,18.73,1111122 
COMPS,ioos:station:USF.COMPS:ANC:1,2011-02-03T17:54:00Z,28.1930,-82.7890,18.73,1111122 
COMPS,ioos:station:USF.COMPS:ANC:1,2011-02-03T18:00:00Z,28.1930,-82.7890,18.7,1111122 
COMPS,ioos:station:USF.COMPS:ANC:1,2011-02-03T19:00:00Z,28.1930,-82.7890,18.8,1111122 
COMPS,ioos:station:USF.COMPS:ANC:1,2011-02-03T19:06:00Z,28.1930,-82.7890,18.95,1111122 
COMPS,ioos:station:USF.COMPS:ANC:1,2011-02-03T19:12:00Z,28.1930,-82.7890,18.77,1111122 
COMPS,ioos:station:USF.COMPS:ANC:1,2011-02-03T19:18:00Z,28.1930,-82.7890,18.77,1111122 
COMPS,ioos:station:USF.COMPS:ANC:1,2011-02-03T19:24:00Z,28.1930,-82.7890,19.27,1111122 
COMPS,ioos:station:USF.COMPS:ANC:1,2011-02-03T19:30:00Z,28.1930,-82.7890,18.89,1111122 
COMPS,ioos:station:USF.COMPS:ANC:1,2011-02-03T19:36:00Z,28.1930,-82.7890,18.8,1111122 
COMPS,ioos:station:USF.COMPS:ANC:1,2011-02-03T19:42:00Z,28.1930,-82.7890,18.64,1111122 
COMPS,ioos:station:USF.COMPS:ANC:1,2011-02-03T19:48:00Z,28.1930,-82.7890,18.67,1111122 
COMPS,ioos:station:USF.COMPS:ANC:1,2011-02-03T19:54:00Z,28.1930,-82.7890,18.54,1111122 
COMPS,ioos:station:USF.COMPS:ANC:1,2011-02-03T20:00:00Z,28.1930,-82.7890,18.5,1111122 
COMPS,ioos:station:USF.COMPS:ANC:1,2011-02-03T21:00:00Z,28.1930,-82.7890,18.8,1111122 
COMPS,ioos:station:USF.COMPS:ANC:1,2011-02-03T22:00:00Z,28.1930,-82.7890,19.3,1111122 
COMPS,ioos:station:USF.COMPS:ANC:1,2011-02-03T22:06:00Z,28.1930,-82.7890,19.26,1111122 
COMPS,ioos:station:USF.COMPS:ANC:1,2011-02-03T22:12:00Z,28.1930,-82.7890,19.3,1111122 
COMPS,ioos:station:USF.COMPS:ANC:1,2011-02-03T22:18:00Z,28.1930,-82.7890,19.32,1111122 
COMPS,ioos:station:USF.COMPS:ANC:1,2011-02-03T22:24:00Z,28.1930,-82.7890,19.77,1111122 
COMPS,ioos:station:USF.COMPS:ANC:1,2011-02-03T22:30:00Z,28.1930,-82.7890,19.37,1111122 
COMPS,ioos:station:USF.COMPS:ANC:1,2011-02-03T22:36:00Z,28.1930,-82.7890,19.32,1111122 
COMPS,ioos:station:USF.COMPS:ANC:1,2011-02-03T22:42:00Z,28.1930,-82.7890,19.3,1111122 
COMPS,ioos:station:USF.COMPS:ANC:1,2011-02-03T22:48:00Z,28.1930,-82.7890,19.38,1111122 
COMPS,ioos:station:USF.COMPS:ANC:1,2011-02-03T22:54:00Z,28.1930,-82.7890,19.53,1111122 
COMPS,ioos:station:USF.COMPS:ANC:1,2011-02-03T23:00:00Z,28.1930,-82.7890,19.5,1111122 
COMPS,ioos:station:USF.COMPS:ANC:1,2011-02-04T00:00:00Z,28.1930,-82.7890,19.3,1111122 
COMPS,ioos:station:USF.COMPS:ANC:1,2011-02-04T01:00:00Z,28.1930,-82.7890,19.8,1111122 
COMPS,ioos:station:USF.COMPS:ANC:1,2011-02-04T02:00:00Z,28.1930,-82.7890,18.5,1111122 
COMPS,ioos:station:USF.COMPS:ANC:1,2011-02-04T03:00:00Z,28.1930,-82.7890,17.2,1111122 
COMPS,ioos:station:USF.COMPS:ANC:1,2011-02-04T03:06:00Z,28.1930,-82.7890,17.13,1111122 
COMPS,ioos:station:USF.COMPS:ANC:1,2011-02-04T03:12:00Z,28.1930,-82.7890,17.02,1111122 
COMPS,ioos:station:USF.COMPS:ANC:1,2011-02-04T03:18:00Z,28.1930,-82.7890,16.95,1111122 
COMPS,ioos:station:USF.COMPS:ANC:1,2011-02-04T03:24:00Z,28.1930,-82.7890,17.09,1111122 
COMPS,ioos:station:USF.COMPS:ANC:1,2011-02-04T03:30:00Z,28.1930,-82.7890,16.84,1111122 
COMPS,ioos:station:USF.COMPS:ANC:1,2011-02-04T03:36:00Z,28.1930,-82.7890,16.75,1111122 
COMPS,ioos:station:USF.COMPS:ANC:1,2011-02-04T03:42:00Z,28.1930,-82.7890,16.75,1111122 
COMPS,ioos:station:USF.COMPS:ANC:1,2011-02-04T03:48:00Z,28.1930,-82.7890,16.75,1111122 
COMPS,ioos:station:USF.COMPS:ANC:1,2011-02-04T03:54:00Z,28.1930,-82.7890,16.75,1111122 
COMPS,ioos:station:USF.COMPS:ANC:1,2011-02-04T04:00:00Z,28.1930,-82.7890,16.8,1111122 
COMPS,ioos:station:USF.COMPS:ANC:1,2011-02-04T05:00:00Z,28.1930,-82.7890,17.1,1111122 
COMPS,ioos:station:USF.COMPS:ANC:1,2011-02-04T06:00:00Z,28.1930,-82.7890,17.2,1111122 
COMPS,ioos:station:USF.COMPS:ANC:1,2011-02-04T06:06:00Z,28.1930,-82.7890,17.16,1111122 
COMPS,ioos:station:USF.COMPS:ANC:1,2011-02-04T06:12:00Z,28.1930,-82.7890,17.16,1111122 
COMPS,ioos:station:USF.COMPS:ANC:1,2011-02-04T06:18:00Z,28.1930,-82.7890,17.16,1111122 
COMPS,ioos:station:USF.COMPS:ANC:1,2011-02-04T06:24:00Z,28.1930,-82.7890,17.41,1111122 
COMPS,ioos:station:USF.COMPS:ANC:1,2011-02-04T06:30:00Z,28.1930,-82.7890,17.28,1111122 